Location: Marse
(42.1502°N, 110.9866°W)
Time: 08:53:57
(UTC+00:00)

AO-109 - Visible Passes

Search period start: 25 June 2022 00:00
Search period end: 05 July 2022 00:00
Orbit: 477 x 501 km, 60.7° (Epoch: 24 June)

Date Brightness Start Highest point End Pass type
(mag) Time Alt. Az. Time Alt. Az. Time Alt. Az.
29 Jun ? 11:16:31 10° S 11:19:48 30° ESE 11:23:07 10° ENE visible
30 Jun ? 10:52:16 10° S 10:55:25 26° ESE 10:58:36 10° ENE visible
01 Jul ? 10:28:05 10° S 10:31:03 23° ESE 10:34:04 10° ENE visible
02 Jul ? 10:04:37 14° SSE 10:06:39 20° ESE 10:09:29 10° ENE visible
03 Jul ? 09:41:05 16° SE 09:42:16 18° ESE 09:44:51 10° ENE visible
03 Jul ? 11:15:55 10° WSW 11:19:27 42° NW 11:23:04 10° NNE visible
04 Jul ? 09:17:29 15° SE 09:17:52 16° ESE 09:20:09 10° E visible
04 Jul ? 10:51:54 13° WSW 10:54:59 48° NW 10:58:39 10° NNE visible
